{"data":{"norad_id":43698,"intl_designator":"2018-089A","name":"GSAT-29","alt_names":[],"object_type":"PAYLOAD","status":"ACTIVE","operator":null,"country":"IND","launch_date":"2018-11-14","launch_site_code":"SRILR","launch_vehicle":null,"mission":null,"orbit_class":"UNKNOWN","rcs_meters":null,"size_class":null,"mass_kg":null,"dimensions":null,"purposes":["comms"],"wikipedia_slug":null,"has_3d_model":false,"image_url":null,"decayed_at":null,"tle_current":{"epoch":"2026-09-18T22:24:59.508576Z","epoch_age_seconds":157297,"freshness":"FRESH","line1":"1 43698U 18089A   26261.93402209  .00000079  00000+0  00000+0 0  9996","line2":"2 43698   0.0379 266.6103 0001630 262.8079 219.8317  1.00277814 28729","mean_motion":1.00277814,"eccentricity":0.000163,"inclination_deg":0.0379,"raan_deg":266.6103,"arg_perigee_deg":262.8079,"mean_anomaly_deg":219.8317,"bstar":0,"rev_number":2872,"period_min":1436.0105616183,"perigee_km":35778.032322483,"apogee_km":35791.777474142,"semimajor_km":42163.041898313,"source":"CELESTRAK","updated_at":"2026-09-20T09:00:35.263201Z"}}}